Wetbulb
66.64 63.97 56.03 53.14 44.75 43.36 38.95 43.01 47.24 48.06 51.92 54.89 56.40 54.29 55.07 54.75 53.97 49.51 60.76 65.53 66.49 66.93 71.33 73.14 74.52 74.15 73.47 73.02 72.65 72.58 72.11 71.64 71.28 70.69 70.34 69.85 69.48 68.75 67.93 67.79 66.89 66.69 66.57 66.69 66.91 66.51 66.14 66.25 66.30
61.61 58.60 54.10 50.49 41.10 37.76 38.41 45.28 46.69 49.69 55.82 58.09 56.99 56.78 55.02 54.66 58.48 59.78 60.63 66.22 66.76 68.11 70.70 71.70 74.47 74.07 73.65 73.22 72.78 72.56 72.14 71.69 71.38 70.89 70.13 69.54 69.53 68.94 67.56 67.32 66.97 67.12 67.28 67.02 66.69 66.75 66.92 67.12 67.07
58.73 57.23 49.36 46.46 41.63 38.95 40.25 47.70 49.64 53.50 57.51 56.94 55.40 57.63 57.33 57.16 61.73 60.99 63.51 67.15 67.91 68.58 70.22 70.62 74.32 73.85 73.72 73.32 72.85 72.51 72.04 71.69 71.51 71.16 70.39 69.72 69.51 69.62 69.15 67.94 67.77 67.90 68.31 67.91 67.85 68.11 68.13 68.26 68.39
57.26 53.07 49.65 42.88 41.93 45.17 44.97 49.59 51.25 52.66 54.87 58.10 56.40 55.28 57.25 62.48 62.99 63.56 67.02 67.84 67.27 68.04 69.76 71.64 74.05 73.65 73.60 73.70 73.18 72.48 72.11 71.96 71.66 71.21 70.93 70.50 69.63 69.72 69.51 68.30 68.12 68.32 68.81 68.89 68.72 68.99 69.24 69.59 69.77
54.04 48.86 42.34 40.44 42.72 47.15 48.94 52.15 51.21 50.50 52.78 55.90 56.67 54.82 54.71 60.22 64.20 66.66 67.23 67.79 66.76 67.36 69.05 70.41 73.99 73.62 73.77 73.85 73.28 72.83 72.36 72.06 71.79 71.51 71.11 70.48 70.46 69.86 69.13 68.65 68.51 68.54 69.08 69.41 69.75 69.90 70.09 70.53 70.78
48.24 47.31 39.19 39.00 42.52 48.00 48.93 51.13 50.97 51.01 53.43 55.86 56.69 54.89 54.76 59.00 64.72 66.24 67.49 66.40 66.75 67.42 68.48 69.48 73.85 73.74 73.32 73.33 73.30 72.61 72.09 72.01 71.74 71.54 71.27 70.92 70.65 70.24 69.68 69.17 68.86 69.16 69.58 69.93 70.10 70.22 70.63 70.73 70.12
46.28 42.34 39.62 42.62 44.79 47.24 49.77 52.25 50.95 51.49 52.31 54.75 56.81 53.46 55.07 57.99 62.61 66.65 66.51 66.18 65.50 66.52 67.76 68.29 71.48 72.52 73.75 73.37 72.88 72.38 71.94 71.72 71.62 71.37 71.25 71.18 71.13 70.90 70.41 70.21 69.83 69.88 70.01 70.23 70.58 71.12 71.08 70.80 69.95
47.69 43.73 39.13 42.45 44.05 45.00 51.54 51.15 52.06 52.13 52.71 57.08 58.23 52.45 51.27 57.40 61.60 66.13 65.74 64.86 64.34 64.77 65.95 66.14 69.30 70.58 70.75 71.10 73.15 72.70 72.03 71.74 71.54 71.54 71.57 71.22 71.34 71.12 70.83 70.31 70.66 70.33 70.24 70.71 71.17 71.17 71.10 70.50 69.98
48.82 39.73 37.45 41.75 44.56 46.28 50.91 47.08 53.47 55.53 53.82 54.28 56.27 56.41 58.06 60.02 60.38 61.73 61.32 60.86 64.00 65.39 63.60 64.39 67.30 68.36 69.13 69.38 70.63 72.50 72.38 72.21 71.91 71.74 71.73 70.73 69.13 69.31 69.14 70.31 70.36 70.49 70.76 71.12 71.49 71.61 71.30 69.89 68.75
47.12 39.23 41.41 46.25 48.64 48.11 50.12 48.32 50.06 51.84 51.28 52.06 54.14 57.61 58.47 59.50 58.29 58.21 59.01 60.87 60.01 63.57 64.59 63.55 65.26 67.17 67.71 68.65 68.13 69.59 69.25 69.02 69.33 69.21 69.19 69.21 68.08 68.31 69.08 69.79 70.48 70.36 71.17 71.76 72.02 71.94 70.85 69.29 66.44
50.17 44.89 46.46 46.96 49.37 50.31 50.30 49.58 51.11 49.70 48.54 51.63 51.71 54.35 55.85 56.79 56.44 56.78 57.60 59.15 61.59 61.63 64.52 64.96 64.71 65.86 66.53 66.95 66.44 67.58 68.34 67.69 68.18 67.88 67.95 68.51 67.63 68.28 68.93 67.68 68.56 68.50 70.44 69.19 70.62 70.42 69.31 66.80 65.57
47.11 51.40 51.99 51.27 52.55 51.37 49.69 52.25 50.78 51.18 50.79 54.07 54.49 54.97 54.93 55.56 55.02 55.18 55.54 56.03 56.80 56.33 59.29 64.22 65.64 65.62 65.64 66.38 65.75 65.86 67.00 66.60 66.98 67.60 67.23 67.13 67.30 66.48 67.11 66.56 66.11 66.08 67.14 68.44 67.99 67.41 66.96 66.07 65.36
49.41 50.15 52.38 54.83 55.05 53.84 54.86 53.49 52.87 53.64 56.80 56.82 57.02 57.19 56.22 55.05 54.92 55.05 55.65 55.22 55.16 54.59 55.76 58.57 65.60 66.18 66.14 64.93 64.99 65.21 65.64 66.09 65.88 66.49 66.96 66.96 66.57 65.38 65.33 65.54 64.54 63.87 65.19 66.44 66.42 66.00 65.35 64.62 64.05
43.34 46.03 49.50 50.79 50.83 51.01 50.37 50.83 50.36 52.28 55.91 55.66 55.90 55.75 55.94 55.50 55.06 54.89 53.89 54.12 54.60 55.25 55.39 56.28 64.11 66.27 66.51 65.29 64.63 64.93 65.00 65.56 65.16 65.53 66.42 66.56 66.10 64.81 64.65 64.22 63.39 63.26 63.67 64.48 65.06 64.50 64.01 63.11 62.99
42.58 39.95 42.05 43.56 45.26 47.53 50.70 47.29 48.38 52.84 53.89 53.02 53.81 54.44 55.15 55.93 54.26 53.79 54.79 54.83 55.16 55.19 56.13 54.98 60.61 65.65 66.12 66.32 65.76 65.03 64.93 65.49 65.05 65.10 66.29 66.31 65.55 64.33 63.89 63.51 62.90 63.37 63.49 63.72 63.49 63.40 63.03 62.51 62.29
39.25 38.01 36.70 43.94 43.82 45.49 47.69 42.39 49.77 52.32 52.57 52.02 52.92 53.33 54.10 54.72 53.63 54.29 54.85 54.61 54.94 54.42 54.55 55.74 59.69 65.06 65.84 66.17 66.60 66.02 65.78 65.75 65.42 65.20 66.45 66.18 65.24 64.73 63.35 62.98 63.11 63.72 63.22 63.20 62.72 62.38 61.78 61.91 61.49
35.90 35.59 34.85 39.00 45.07 45.34 44.89 42.90 48.29 50.92 50.31 50.31 50.70 50.78 51.76 52.56 53.03 53.55 54.38 54.57 54.73 55.04 55.26 55.34 55.99 62.35 64.95 65.94 66.14 65.70 65.73 66.02 65.55 65.45 66.04 65.86 65.69 65.13 63.89 63.44 63.66 63.85 63.35 62.87 62.46 61.92 62.07 61.39 61.19
31.94 33.28 36.81 36.60 41.50 43.97 41.82 42.98 46.70 48.75 49.19 49.48 50.17 50.45 50.29 51.15 51.67 53.49 54.33 54.99 55.32 55.06 54.78 54.26 54.30 58.24 63.34 64.71 64.37 64.40 65.23 65.57 65.37 65.18 65.45 65.71 65.73 65.44 64.38 63.84 63.69 63.62 62.87 62.30 61.80 61.61 61.23 61.38 61.08
36.29 34.53 34.29 38.40 42.77 41.45 41.47 42.61 44.97 47.09 47.06 47.53 48.84 49.70 50.62 51.47 53.84 54.43 53.97 54.73 54.37 54.31 54.02 54.37 54.48 58.45 64.74 64.52 63.53 63.17 64.47 64.85 64.81 65.44 65.82 65.80 66.02 65.44 64.83 63.99 63.62 63.61 62.64 62.80 61.95 61.45 60.89 60.57 61.31
35.54 32.46 32.31 37.15 40.98 39.35 38.52 38.02 41.33 43.30 44.40 46.41 47.75 48.38 48.75 49.37 50.02 51.88 52.34 53.68 52.76 53.49 54.33 53.62 54.11 60.00 64.37 64.88 63.75 63.85 63.74 63.94 64.46 65.22 66.01 66.47 65.98 65.42 64.64 63.97 63.54 62.82 62.15 61.98 61.54 61.57 60.08 59.72 60.43
33.07 32.19 32.70 33.77 38.72 40.01 37.95 36.74 39.99 43.46 43.60 45.18 46.10 47.25 48.48 49.54 50.36 51.50 51.79 51.58 51.74 51.91 53.24 54.48 54.14 60.32 62.98 63.60 62.63 61.59 61.46 61.62 61.85 63.08 64.05 64.96 65.78 65.60 64.62 63.61 62.90 62.33 62.29 61.49 60.93 60.45 59.49 57.80 59.92
29.68 36.85 36.87 36.75 33.70 28.84 36.51 27.99 37.14 40.79 42.01 43.36 44.08 44.96 46.59 46.79 48.88 50.10 50.01 50.46 52.28 53.15 53.68 57.57 59.29 62.08 63.56 63.46 62.04 62.72 61.11 60.95 60.85 62.71 63.16 64.02 65.02 64.62 63.98 63.15 62.88 62.90 62.49 61.85 60.98 60.54 59.40 58.62 57.19
32.17 37.42 35.57 36.22 32.44 30.11 32.46 27.92 35.48 36.99 37.68 39.17 42.65 44.75 45.77 47.24 47.54 47.93 48.57 50.64 52.13 51.58 57.36 61.21 62.81 63.98 63.81 63.28 63.04 61.69 60.18 59.52 60.08 60.81 61.67 62.07 62.94 63.69 64.02 64.02 63.75 62.86 62.24 61.52 60.85 60.66 59.20 58.82 58.44
38.19 35.17 33.99 32.09 29.95 23.58 30.72 30.27 32.36 35.31 38.10 40.31 41.85 43.70 44.79 44.89 45.57 46.83 48.46 48.68 50.34 57.61 62.01 63.65 63.22 62.56 62.92 62.79 61.54 61.22 59.95 59.70 60.08 59.62 60.16 60.48 61.02 62.03 63.41 63.65 62.96 62.22 61.46 60.94 60.83 60.81 60.38 59.38 59.12
32.60 27.26 20.86 19.59 19.97 22.08 32.84 29.95 33.76 36.51 40.21 41.11 42.47 43.67 44.77 45.55 45.62 45.91 46.40 52.76 56.48 61.23 62.70 63.71 62.71 61.37 61.63 61.30 60.98 60.83 60.16 60.62 60.13 59.80 59.38 59.40 59.63 60.38 61.16 61.78 61.29 60.98 61.14 61.19 61.09 60.72 60.79 60.14 59.48
29.42 28.14 21.15 19.70 20.36 22.34 32.90 27.76 33.18 40.66 43.37 43.78 44.16 43.84 44.25 44.36 44.58 45.39 47.88 55.33 60.43 61.79 63.08 62.41 62.00 60.52 60.59 60.91 60.24 60.50 60.52 60.38 59.65 59.65 59.87 59.73 60.22 60.87 61.43 61.54 61.31 61.08 61.36 61.12 61.36 61.34 61.04 60.18 60.41
30.79 25.98 32.45 25.30 26.66 22.50 27.01 32.14 37.95 41.55 42.42 42.70 42.68 43.54 43.81 44.18 44.53 52.65 58.23 60.17 61.14 61.88 61.64 61.49 60.49 59.80 59.80 59.74 59.89 59.64 59.92 60.03 59.62 59.70 60.06 59.84 60.35 60.91 61.08 61.07 60.62 61.27 61.81 62.25 61.97 61.87 61.50 60.91 59.96
33.42 34.51 25.05 22.63 19.69 19.46 25.20 27.94 30.77 36.86 38.42 41.77 42.48 42.67 43.89 44.78 53.49 57.92 59.23 60.05 60.39 60.25 60.44 59.90 60.15 59.61 59.69 59.82 60.23 59.92 59.85 60.06 59.64 59.97 59.49 59.79 60.20 60.65 60.53 60.92 61.47 61.74 62.03 62.31 61.98 61.69 61.98 60.69 59.94
31.80 28.09 28.89 26.48 24.54 21.57 21.78 26.13 36.04 37.71 39.41 40.03 41.93 47.33 48.09 48.15 55.65 58.00 59.35 60.60 59.30 59.86 59.30 59.36 59.39 59.45 59.51 60.18 60.00 59.90 59.61 59.77 59.56 59.48 59.57 59.80 59.55 60.56 60.63 61.27 61.79 61.73 61.58 61.58 61.65 61.03 61.40 60.41 58.82
33.33 30.84 30.75 24.96 24.15 26.70 24.11 25.68 38.47 38.68 39.43 41.49 44.20 49.24 53.53 53.08 57.25 58.36 58.95 60.23 59.17 58.75 58.99 59.24 59.56 59.65 59.68 60.22 59.99 59.57 59.64 59.21 59.14 59.31 59.82 59.66 59.89 60.81 61.18 61.91 62.07 62.05 61.57 60.76 61.10 60.49 60.95 58.64 58.56
MSLP
1010.78 1011.13 1011.44 1011.70 1012.46 1012.38 1011.88 1009.83 1008.27 1007.18 1006.24 1005.49 1005.12 1005.17 1005.03 1005.07 1005.29 1005.87 1004.48 1004.66 1004.85 1005.69 1006.46 1007.12 1007.66 1008.14 1008.65 1009.06 1009.28 1009.75 1010.00 1010.16 1010.41 1010.57 1010.81 1011.02 1011.35 1011.68 1011.86 1012.10 1012.58 1012.97 1013.23 1013.48 1013.63 1013.73 1013.97 1013.98 1014.14
1010.67 1011.23 1011.55 1011.86 1012.15 1012.12 1010.77 1008.64 1007.57 1006.44 1005.69 1005.01 1004.92 1004.53 1004.52 1004.34 1004.06 1004.08 1004.46 1004.61 1004.79 1005.40 1006.10 1006.76 1007.23 1007.72 1008.33 1008.91 1009.15 1009.53 1009.87 1010.10 1010.26 1010.47 1010.71 1011.01 1011.26 1011.60 1011.83 1012.08 1012.35 1012.72 1013.08 1013.44 1013.59 1013.68 1013.93 1014.05 1014.13
1010.61 1010.69 1011.83 1011.89 1011.59 1010.94 1009.65 1007.69 1006.84 1005.86 1005.51 1004.95 1004.64 1004.07 1003.98 1003.77 1003.65 1003.83 1003.83 1004.30 1004.84 1005.46 1005.92 1006.47 1006.86 1007.48 1008.12 1008.55 1008.98 1009.34 1009.53 1009.82 1010.03 1010.17 1010.54 1010.92 1011.30 1011.66 1011.93 1012.18 1012.26 1012.52 1012.82 1013.18 1013.47 1013.65 1013.80 1013.93 1014.08
1010.96 1010.97 1012.04 1011.71 1010.81 1009.73 1008.48 1007.00 1006.11 1005.33 1004.64 1004.52 1004.35 1004.09 1003.52 1003.17 1003.18 1003.40 1003.78 1004.41 1004.92 1005.27 1005.65 1006.17 1006.62 1007.30 1007.79 1008.10 1008.51 1008.96 1009.25 1009.51 1009.81 1009.91 1010.27 1010.68 1011.09 1011.55 1012.04 1012.24 1012.33 1012.49 1012.67 1012.97 1013.21 1013.46 1013.63 1013.75 1013.85
1011.02 1011.34 1011.88 1011.61 1010.46 1008.78 1007.80 1006.87 1006.39 1005.79 1005.20 1004.13 1004.11 1003.76 1003.58 1003.17 1002.90 1003.26 1003.82 1004.32 1004.62 1005.41 1005.74 1006.17 1006.35 1006.76 1007.12 1007.50 1008.03 1008.64 1008.94 1009.19 1009.37 1009.60 1009.93 1010.48 1010.90 1011.36 1011.82 1012.14 1012.36 1012.61 1012.75 1012.91 1013.14 1013.14 1013.34 1013.49 1013.64
1011.20 1011.76 1011.99 1011.10 1009.99 1008.42 1007.05 1006.46 1005.92 1005.06 1004.30 1003.81 1003.78 1003.50 1003.44 1003.11 1003.32 1003.53 1003.92 1004.36 1004.53 1005.07 1005.71 1005.99 1006.04 1006.39 1006.72 1007.19 1007.95 1008.44 1008.74 1008.90 1009.11 1009.32 1009.60 1010.07 1010.51 1011.08 1011.63 1011.90 1012.21 1012.51 1012.68 1012.77 1012.88 1012.98 1013.13 1013.31 1013.42
1011.33 1011.85 1011.42 1010.61 1009.48 1008.00 1006.58 1005.71 1005.32 1004.56 1003.89 1003.30 1003.18 1003.48 1003.22 1003.08 1003.04 1003.79 1004.40 1004.72 1004.95 1005.41 1005.90 1006.27 1006.24 1006.59 1007.23 1007.69 1008.04 1008.27 1008.58 1008.74 1008.96 1009.24 1009.37 1009.72 1010.24 1010.85 1011.33 1011.67 1012.04 1012.32 1012.59 1012.71 1012.84 1012.75 1012.91 1013.09 1013.35
1010.87 1011.29 1011.07 1010.05 1008.93 1007.34 1006.29 1005.66 1004.65 1004.00 1003.36 1002.89 1002.73 1003.41 1003.25 1002.83 1003.18 1004.08 1004.56 1004.99 1005.20 1005.53 1005.88 1006.23 1006.34 1006.81 1007.07 1007.23 1007.54 1008.02 1008.42 1008.62 1008.90 1009.06 1009.13 1009.56 1009.95 1010.45 1010.89 1011.38 1011.90 1012.21 1012.37 1012.53 1012.64 1012.59 1012.65 1012.83 1013.12
1010.58 1011.00 1010.53 1008.98 1008.28 1006.78 1006.00 1005.91 1004.49 1003.74 1003.17 1003.17 1002.80 1002.93 1002.79 1002.74 1002.98 1003.90 1004.56 1005.07 1005.48 1005.64 1005.73 1005.92 1006.15 1006.32 1006.67 1007.08 1007.35 1007.78 1008.11 1008.47 1008.76 1008.94 1009.07 1009.17 1009.52 1009.98 1010.50 1010.99 1011.53 1011.87 1012.15 1012.29 1012.43 1012.49 1012.51 1012.67 1012.76
1010.28 1010.08 1008.79 1007.51 1007.16 1006.50 1005.93 1005.32 1005.04 1004.27 1003.80 1003.35 1003.14 1002.99 1002.85 1003.21 1003.33 1003.99 1004.51 1004.64 1005.01 1005.18 1005.15 1005.40 1005.78 1005.96 1006.55 1006.67 1007.04 1007.41 1007.78 1007.91 1008.22 1008.50 1008.91 1009.25 1009.44 1009.72 1010.09 1010.63 1011.02 1011.49 1011.76 1011.96 1012.08 1012.21 1012.31 1012.38 1012.68
1009.09 1008.30 1007.56 1006.57 1006.50 1006.46 1005.83 1005.31 1004.57 1004.15 1003.70 1003.07 1003.06 1003.32 1003.42 1003.38 1003.91 1004.39 1004.57 1004.38 1004.05 1004.11 1004.72 1005.01 1005.21 1005.73 1006.03 1006.43 1006.70 1006.78 1007.11 1007.43 1007.71 1008.05 1008.48 1008.90 1009.30 1009.55 1010.03 1010.51 1010.78 1011.13 1011.47 1011.74 1011.85 1012.09 1012.14 1012.30 1012.51
1008.61 1007.64 1007.04 1006.44 1006.34 1006.22 1005.92 1005.45 1004.24 1003.92 1003.75 1003.15 1003.12 1002.96 1003.44 1003.83 1003.79 1004.31 1004.48 1003.93 1004.13 1003.88 1003.68 1003.96 1004.48 1005.04 1005.20 1005.78 1006.01 1006.43 1006.64 1006.89 1007.08 1007.36 1007.91 1008.44 1009.25 1009.74 1010.02 1010.35 1010.60 1010.92 1011.15 1011.51 1011.87 1012.10 1012.07 1012.19 1012.39
1007.90 1007.10 1006.84 1006.55 1006.51 1006.12 1006.04 1005.28 1005.18 1003.39 1003.26 1002.86 1002.35 1002.51 1002.72 1002.75 1003.41 1003.65 1003.49 1003.23 1003.51 1003.82 1003.32 1003.29 1003.44 1003.78 1004.04 1004.66 1005.24 1005.52 1005.48 1005.86 1006.28 1006.74 1007.18 1007.76 1008.47 1009.02 1009.81 1010.17 1010.39 1010.73 1011.02 1011.35 1011.70 1011.91 1012.09 1012.20 1012.28
1007.13 1006.88 1006.80 1006.55 1006.35 1006.23 1005.89 1005.15 1005.37 1003.60 1003.20 1002.99 1003.24 1002.61 1002.32 1002.41 1002.60 1002.78 1002.87 1003.09 1003.21 1002.86 1002.76 1002.25 1002.73 1002.80 1003.51 1004.02 1004.00 1003.99 1004.83 1005.21 1005.84 1006.34 1006.43 1007.07 1007.76 1008.60 1009.58 1009.71 1009.98 1010.39 1010.81 1011.10 1011.44 1011.66 1011.86 1011.98 1012.18
1007.25 1007.29 1007.06 1006.49 1006.14 1005.91 1006.07 1005.13 1002.90 1003.74 1003.54 1003.06 1002.86 1002.64 1002.31 1002.11 1002.21 1002.44 1002.39 1002.36 1002.09 1001.93 1001.85 1001.77 1001.66 1002.19 1002.63 1002.73 1003.22 1003.62 1003.73 1004.38 1004.93 1005.53 1006.30 1006.68 1007.35 1008.10 1009.01 1009.24 1009.59 1010.05 1010.28 1010.73 1011.14 1011.45 1011.72 1011.90 1012.05
1007.82 1007.68 1007.30 1005.72 1006.40 1005.96 1005.76 1003.08 1001.75 1002.65 1003.05 1002.65 1002.56 1002.28 1001.94 1001.55 1001.72 1001.62 1001.59 1001.69 1001.23 1001.18 1001.09 1000.78 1000.99 1001.50 1001.68 1001.92 1002.38 1003.03 1003.44 1003.98 1004.14 1004.62 1005.48 1006.33 1006.82 1007.61 1008.08 1008.71 1008.93 1009.20 1009.97 1010.14 1010.78 1011.25 1011.50 1011.69 1011.89
1007.91 1006.91 1006.30 1006.34 1005.23 1005.69 1005.52 1002.21 1002.35 1002.54 1002.83 1001.86 1001.89 1001.55 1001.37 1001.24 1001.15 1000.96 1000.98 1000.98 1000.65 1000.17 999.93 1000.06 1000.53 1000.65 1000.66 1001.22 1001.76 1002.35 1002.84 1003.36 1004.12 1004.56 1005.31 1005.84 1006.34 1006.75 1007.54 1008.03 1008.55 1009.21 1009.82 1010.21 1010.44 1010.96 1011.24 1011.44 1011.58
1007.31 1006.87 1006.50 1006.05 1005.31 1005.29 1005.03 1002.12 1002.73 1002.65 1002.66 1001.87 1001.66 1001.18 1000.99 1000.65 1000.49 1000.16 999.92 999.64 999.46 999.24 999.52 999.71 999.79 1000.00 1000.35 1000.87 1001.65 1002.29 1002.91 1003.17 1003.69 1004.29 1004.91 1005.33 1005.66 1006.18 1007.22 1007.63 1008.11 1008.73 1009.49 1009.91 1010.35 1010.71 1010.95 1011.14 1011.38
1007.65 1007.31 1006.90 1006.27 1005.61 1005.32 1004.62 1003.32 1003.03 1002.84 1002.25 1001.94 1001.24 1000.87 1000.36 1000.07 999.81 999.57 999.49 999.33 999.08 999.00 999.22 999.07 999.16 999.14 999.92 1000.67 1001.55 1002.26 1002.49 1003.00 1003.49 1004.13 1004.59 1004.98 1005.39 1005.77 1006.62 1007.34 1007.77 1008.30 1009.10 1009.52 1009.89 1010.34 1010.85 1011.10 1011.32
1007.79 1007.85 1007.39 1006.97 1006.20 1005.94 1005.31 1003.98 1003.63 1003.12 1002.27 1001.42 1000.90 1000.36 1000.27 1000.02 999.69 999.34 999.07 998.80 998.81 998.87 998.53 998.49 998.65 998.96 999.35 999.65 1000.54 1001.11 1001.81 1002.80 1003.24 1003.91 1004.24 1004.58 1005.18 1005.62 1006.22 1006.81 1007.46 1008.05 1008.92 1009.28 1009.70 1010.24 1010.72 1010.88 1011.01
1007.72 1007.60 1007.56 1007.48 1006.72 1005.99 1005.85 1003.91 1003.01 1001.81 1001.21 1000.59 1000.09 999.87 999.61 999.41 999.23 998.83 998.64 998.41 998.13 998.27 998.11 998.01 998.09 998.53 998.86 999.64 1000.23 1001.16 1001.79 1002.73 1003.48 1003.82 1004.12 1004.50 1004.97 1005.59 1005.88 1006.48 1007.18 1007.90 1008.42 1008.86 1009.35 1009.87 1010.21 1010.49 1010.74
1007.54 1007.43 1007.50 1007.54 1007.53 1006.97 1006.23 1003.96 1002.54 1001.53 1000.18 1000.10 999.77 999.30 998.83 998.80 998.50 998.18 998.19 997.99 997.52 997.18 997.30 997.38 997.77 997.95 998.55 999.41 999.79 1000.55 1001.01 1002.17 1002.57 1002.98 1003.81 1004.45 1004.87 1005.42 1005.82 1006.46 1007.08 1007.56 1008.00 1008.56 1008.98 1009.27 1009.71 1010.15 1010.44
1006.98 1007.33 1007.81 1008.13 1008.09 1007.76 1006.88 1006.42 1000.40 1000.51 999.63 999.34 998.95 998.48 998.11 997.59 997.67 997.61 997.46 997.19 996.83 997.05 997.21 997.50 997.84 997.91 998.39 999.19 999.66 1000.35 1001.06 1001.66 1002.33 1003.08 1004.08 1004.64 1005.14 1005.40 1006.00 1006.44 1006.83 1007.19 1007.69 1008.24 1008.61 1009.04 1009.56 1009.77 1009.93
1006.78 1007.29 1007.93 1008.40 1008.80 1008.23 1006.81 1006.79 1000.38 1000.37 998.91 998.86 998.08 997.79 997.43 997.48 997.32 996.95 996.63 996.72 996.68 996.88 997.24 997.61 998.01 998.16 998.57 999.11 999.61 1000.07 1000.90 1001.82 1002.57 1003.39 1004.67 1004.86 1005.40 1005.79 1005.90 1006.26 1006.65 1007.01 1007.64 1008.09 1008.33 1008.73 1008.99 1009.25 1009.44
1006.97 1007.64 1008.68 1009.51 1009.21 1007.46 1005.80 1006.01 1000.15 998.67 998.45 998.35 997.92 997.53 997.26 997.03 996.89 996.51 996.44 996.65 996.87 997.27 997.47 997.77 998.09 998.53 998.97 999.10 999.94 1000.35 1001.12 1001.74 1002.47 1003.30 1004.28 1005.01 1005.52 1005.82 1006.01 1006.28 1006.71 1007.09 1007.45 1007.75 1007.96 1008.23 1008.47 1008.59 1008.87
1006.82 1007.56 1007.91 1008.12 1007.94 1007.11 1006.30 1003.74 999.77 998.64 997.79 997.16 997.54 997.46 997.00 996.48 996.17 996.11 996.13 996.50 996.95 997.28 997.42 997.70 998.25 998.77 999.20 999.78 1000.37 1000.87 1001.49 1002.10 1002.78 1003.39 1004.13 1004.75 1005.16 1005.50 1005.88 1006.23 1006.61 1006.98 1007.30 1007.52 1007.72 1007.92 1007.98 1008.13 1008.39
1006.48 1007.01 1006.94 1007.80 1007.38 1006.63 1004.79 1001.83 999.99 998.54 997.81 997.64 997.71 997.31 996.86 996.18 996.00 996.16 996.39 996.65 997.02 997.31 997.59 997.94 998.47 999.04 999.76 1000.34 1000.69 1001.34 1001.95 1002.47 1003.12 1003.81 1004.34 1004.82 1005.12 1005.52 1005.89 1006.25 1006.58 1006.88 1007.14 1007.27 1007.38 1007.53 1007.72 1007.88 1008.12
1005.91 1006.18 1007.13 1007.71 1007.43 1006.34 1003.83 1002.09 1000.22 998.84 998.19 997.97 997.62 997.25 996.48 995.98 996.20 996.56 996.70 996.82 997.21 997.54 997.87 998.28 998.73 999.56 1000.16 1000.59 1000.97 1001.63 1002.14 1002.69 1003.39 1004.06 1004.64 1004.91 1005.20 1005.53 1005.94 1006.27 1006.57 1006.75 1006.93 1007.01 1007.17 1007.39 1007.54 1007.69 1007.91
1006.17 1006.32 1006.69 1006.96 1006.76 1005.72 1004.19 1001.53 999.26 998.45 998.48 998.23 997.82 997.15 996.75 995.84 996.17 996.46 996.77 996.96 997.47 997.87 998.31 998.79 999.23 999.93 1000.59 1000.97 1001.47 1002.05 1002.69 1003.18 1003.74 1004.23 1004.66 1004.95 1005.33 1005.72 1006.03 1006.32 1006.53 1006.69 1006.77 1006.86 1007.05 1007.22 1007.40 1007.61 1007.84
1006.96 1006.86 1007.09 1007.19 1006.73 1005.64 1004.82 1002.25 998.87 998.67 998.41 998.02 997.66 997.41 996.97 996.53 996.48 996.55 996.87 997.30 997.86 998.42 998.84 999.27 999.90 1000.33 1000.87 1001.41 1001.90 1002.50 1003.04 1003.55 1003.99 1004.43 1004.78 1005.06 1005.41 1005.75 1006.01 1006.27 1006.38 1006.56 1006.66 1006.89 1006.96 1007.08 1007.32 1007.49 1007.58
Wind_Speed
6 4 1 3 3 5 4 8 3 6 2 0 1 6 11 2 9 8 4 10 11 14 16 17 20 20 19 18 19 18 18 17 17 17 17 17 16 16 16 15 14 12 10 8 7 6 4 4 3
5 3 2 1 4 3 6 6 6 7 3 6 3 1 3 7 3 2 4 7 9 15 16 16 22 21 21 19 18 18 19 18 18 17 17 17 16 15 15 15 14 13 11 8 7 6 4 3 1
5 3 3 4 4 6 6 5 5 2 4 2 4 4 4 4 2 3 1 12 12 13 15 16 23 22 21 20 19 19 19 19 19 19 18 17 16 15 14 14 14 13 12 10 8 6 4 3 2
1 3 3 2 7 7 6 4 4 10 6 6 2 6 2 4 5 6 10 10 12 12 15 18 23 22 22 22 22 21 21 20 19 19 19 17 17 15 13 13 12 12 12 11 9 7 5 5 4
2 3 2 3 6 6 4 6 3 6 5 7 6 5 4 4 1 8 10 11 13 10 11 14 23 24 24 24 23 22 21 21 20 19 19 17 16 15 14 13 12 11 11 10 9 8 6 6 5
2 3 1 7 7 5 6 7 3 4 5 4 4 5 4 4 5 7 8 10 7 12 11 12 22 23 24 23 21 22 21 21 20 20 19 18 17 16 15 14 13 12 11 11 10 8 6 5 4
4 4 5 4 3 5 5 5 4 5 4 3 2 7 4 4 8 6 5 4 4 5 9 8 11 16 18 18 20 20 20 20 19 19 19 19 18 17 15 14 13 13 12 11 11 10 7 6 6
4 5 3 6 5 8 5 3 4 5 2 2 6 3 4 4 7 7 6 4 5 5 6 7 6 10 11 12 20 20 20 19 19 19 19 19 18 18 16 14 13 14 13 13 12 11 8 7 6
4 2 5 7 8 6 2 2 2 6 1 2 1 1 5 1 9 6 3 2 2 4 6 7 9 9 10 10 11 18 20 19 19 18 19 17 9 11 13 13 14 15 14 14 13 11 9 7 6
6 5 10 6 8 4 4 3 1 4 3 3 0 2 6 4 2 5 6 8 5 6 9 10 10 10 9 9 9 11 10 10 10 10 11 8 7 8 10 12 16 15 14 14 12 12 10 7 2
8 11 13 6 7 3 7 8 2 4 7 6 6 5 7 10 4 5 7 9 14 6 2 10 10 9 11 11 7 7 6 6 7 9 8 7 7 7 6 4 5 5 11 4 7 6 3 4 3
5 12 13 4 5 3 7 9 13 8 10 7 9 8 5 10 8 8 10 9 10 8 9 8 11 11 12 8 8 8 8 8 8 9 10 8 6 6 6 5 6 4 3 4 4 3 3 4 4
15 10 8 15 10 8 5 16 12 20 16 17 20 17 14 8 8 9 11 8 8 8 12 12 11 15 13 14 9 9 11 10 10 9 10 9 8 7 5 5 4 5 3 4 4 4 4 4 5
2 8 11 7 7 4 7 14 5 4 11 15 12 18 16 12 9 8 8 9 9 10 11 10 12 13 11 12 14 12 9 9 8 8 10 12 8 7 7 7 6 4 4 3 4 5 4 4 4
4 6 4 7 5 10 7 22 31 18 15 19 19 18 17 18 10 12 12 10 10 9 11 11 11 10 14 17 14 10 10 9 9 8 9 12 10 10 8 7 5 5 5 5 3 3 3 3 4
4 5 13 13 8 6 11 30 24 8 17 21 19 15 15 17 11 9 11 10 10 9 10 9 7 11 14 14 11 9 7 7 8 8 8 12 12 11 10 8 7 6 4 4 3 3 4 4 4
5 16 9 6 9 11 12 32 11 9 10 17 12 11 11 12 10 10 11 11 10 11 9 9 8 11 14 12 9 8 7 8 6 6 8 12 13 13 9 7 5 5 4 4 3 3 2 3 3
10 6 1 5 5 14 12 31 12 8 9 17 15 14 11 13 12 10 11 10 11 9 8 9 7 10 7 5 5 4 5 5 6 7 8 12 10 12 10 7 6 4 4 3 3 4 3 2 2
6 3 2 1 2 3 16 21 17 12 13 15 18 18 18 18 17 14 9 11 10 10 9 11 7 8 9 6 6 4 6 6 6 6 9 9 9 11 10 5 6 6 6 5 4 2 3 3 3
9 2 4 5 9 4 6 13 13 10 13 15 17 17 14 12 10 11 11 12 9 11 12 10 8 7 7 7 3 3 5 3 5 5 7 8 9 10 9 7 7 7 5 5 5 5 3 3 4
4 5 3 7 9 10 9 17 16 13 11 15 15 15 14 16 16 15 12 11 10 10 11 9 7 9 8 8 7 5 6 5 3 3 4 5 8 9 7 8 7 7 5 5 5 6 8 4 3
11 4 1 3 3 7 3 12 16 16 21 15 12 15 15 11 13 13 10 12 13 14 6 6 6 9 9 9 8 11 5 6 4 4 3 5 7 7 6 6 6 6 4 4 4 4 3 3 4
6 11 8 4 4 4 6 5 14 4 13 9 14 18 19 21 15 14 13 14 14 7 6 4 7 9 12 9 10 8 6 3 4 6 8 5 4 5 5 7 6 5 4 3 4 4 5 4 3
4 5 4 3 3 6 7 8 24 11 18 14 8 13 11 9 11 11 11 8 8 2 4 5 7 6 9 9 10 11 11 9 8 5 6 3 2 3 5 5 5 5 4 4 4 5 5 5 4
4 5 1 1 3 10 14 10 25 3 7 6 8 10 9 9 10 10 8 7 3 5 7 7 8 8 7 10 9 10 10 10 11 8 6 7 4 3 4 5 4 3 4 4 5 5 5 5 5
7 9 5 6 6 4 7 15 11 13 15 12 9 11 10 10 9 9 7 5 7 9 10 9 9 9 8 8 8 8 8 6 5 5 6 4 3 4 5 4 4 4 4 4 3 2 3 5 5
5 5 9 3 3 1 6 8 10 12 20 8 7 8 11 11 8 4 2 6 9 8 8 10 11 10 8 8 9 8 7 8 8 7 5 4 4 4 5 5 4 4 4 4 5 4 5 4 4
5 5 5 1 5 5 6 6 8 8 9 5 9 11 12 10 2 4 6 9 6 7 8 9 10 10 8 8 8 7 8 8 7 6 6 6 5 5 5 4 4 3 3 3 3 2 4 4 2
1 1 2 3 5 4 3 6 7 4 5 7 9 9 11 11 8 9 9 9 8 8 9 9 11 12 9 9 9 10 7 7 6 6 5 5 5 6 5 4 4 3 3 1 1 2 2 3 3
2 3 2 5 6 7 3 9 5 5 4 6 13 15 9 3 7 10 12 12 9 9 10 10 9 10 9 8 9 8 7 6 6 6 5 5 6 4 5 4 3 3 1 1 1 2 3 5 2
Wind_Direction
181 140 101 24 75 74 252 258 238 297 250 79 87 154 194 189 161 207 314 165 123 136 156 167 171 171 179 182 175 173 171 168 165 160 157 156 156 157 157 155 157 158 156 154 145 135 129 119 111
141 117 42 73 111 133 255 247 229 223 295 343 324 114 155 224 217 273 127 171 134 148 161 169 174 176 183 185 180 179 176 173 169 165 163 164 162 163 163 161 160 162 163 163 160 156 157 151 143
141 101 96 159 173 192 221 222 223 221 247 212 304 207 162 228 227 214 243 147 140 155 166 172 177 180 185 185 186 185 181 178 174 169 169 169 169 169 167 169 167 169 170 172 175 177 183 194 231
225 62 12 148 227 253 206 243 351 337 338 161 175 275 265 202 159 204 144 141 151 164 172 178 178 182 188 189 189 190 186 183 180 174 173 173 172 172 174 175 178 178 178 181 187 195 209 225 239
59 37 176 255 259 264 233 264 274 267 250 227 140 259 278 336 91 135 152 158 162 170 173 180 181 187 191 192 192 192 189 187 183 180 177 176 174 175 180 183 186 192 191 191 200 209 228 249 264
83 102 143 229 241 265 269 242 227 258 245 266 153 162 253 295 162 180 163 177 157 168 173 185 190 192 195 195 193 195 194 190 188 184 179 179 178 181 185 187 190 198 203 203 207 214 226 255 265
157 119 225 215 225 280 251 230 212 240 290 261 96 151 230 260 210 139 138 130 131 149 173 188 195 199 201 198 201 202 199 195 191 189 184 182 181 183 186 190 196 202 209 213 217 220 222 227 240
145 128 223 228 182 262 234 267 243 201 167 89 152 15 302 278 107 112 103 105 119 144 167 186 186 196 204 202 205 204 204 200 197 196 189 185 184 184 186 190 202 209 212 218 225 226 225 224 232
136 131 222 220 170 236 231 284 251 291 86 17 89 108 247 306 123 118 123 118 175 197 195 187 193 193 197 200 209 208 207 206 204 202 197 188 183 184 188 188 200 212 218 222 227 230 221 217 224
170 186 219 190 211 227 242 252 255 287 29 216 359 287 348 32 84 169 200 231 223 220 214 200 202 199 196 203 197 203 206 205 204 201 201 193 177 179 180 190 199 212 220 225 229 225 220 219 178
192 217 226 215 208 234 273 292 207 346 313 224 267 174 350 320 242 222 249 232 224 233 229 209 204 200 196 205 194 199 198 200 200 198 185 182 177 184 187 179 196 193 225 222 228 227 210 192 185
227 226 228 237 207 246 252 297 292 262 239 282 272 277 214 225 259 244 242 236 245 218 233 202 197 199 204 199 202 203 200 201 201 198 184 175 178 178 181 188 197 193 192 210 207 219 209 203 202
232 213 211 242 247 244 265 257 262 280 289 295 296 291 275 279 252 236 233 257 238 230 243 226 195 207 200 195 200 201 205 203 204 192 189 180 179 180 179 187 188 203 181 202 200 213 212 214 214
161 216 234 243 237 236 250 269 233 234 260 261 272 278 289 277 249 272 268 239 227 231 240 240 206 207 190 206 204 205 205 203 195 199 190 183 174 174 181 200 199 194 193 189 205 205 211 215 210
270 285 281 226 230 246 217 268 252 246 252 260 261 258 261 264 248 238 245 240 234 236 240 219 209 185 195 204 211 205 199 187 192 191 180 181 167 177 193 200 195 198 199 190 198 207 197 219 223
206 160 241 234 182 247 158 259 246 224 230 247 245 246 252 258 240 243 248 251 265 256 246 249 190 190 201 207 203 207 196 195 187 176 172 173 174 173 192 194 193 204 186 162 173 188 210 220 213
251 236 214 247 215 199 191 254 249 221 240 258 266 260 253 256 263 251 239 231 239 251 269 271 193 201 204 205 194 191 175 176 176 156 168 172 182 191 181 193 189 148 160 193 191 187 201 195 221
221 233 204 203 198 188 205 247 256 271 241 258 259 262 261 263 253 263 271 280 281 280 269 255 220 216 191 155 144 130 151 158 153 163 172 184 181 180 181 182 173 168 159 176 163 188 192 201 233
43 72 55 323 264 283 223 250 253 250 259 257 264 261 264 272 278 280 275 273 281 282 268 247 216 193 159 150 153 151 182 168 156 166 183 176 179 170 173 178 158 157 177 185 158 139 205 234 203
271 263 256 266 260 212 275 277 280 262 258 256 256 259 257 259 271 265 262 263 262 262 269 270 235 177 177 158 133 143 123 132 144 169 173 175 168 165 173 175 168 158 152 158 162 175 205 227 202
202 216 207 225 294 282 302 282 272 261 234 248 252 258 254 248 255 258 260 256 268 259 261 263 211 179 158 137 118 97 87 81 105 162 160 167 163 170 166 159 151 158 168 186 180 188 204 217 187
242 178 247 326 163 258 24 289 270 270 263 248 250 251 260 244 240 254 249 263 262 262 262 237 178 154 143 148 133 153 139 155 185 147 130 139 158 157 140 144 157 166 157 177 192 174 175 155 184
243 199 225 221 252 269 256 310 282 242 266 270 252 254 251 251 247 246 242 246 260 268 241 191 149 141 145 151 146 144 119 106 116 110 116 123 132 131 147 152 157 152 161 167 176 158 187 186 172
204 179 164 158 144 253 204 192 279 247 247 254 260 252 255 253 253 250 253 255 265 215 141 139 139 126 136 142 136 136 134 133 125 115 133 126 112 140 139 136 149 147 154 176 184 191 185 185 191
160 101 139 72 175 232 179 183 237 262 307 241 277 283 264 257 268 263 259 254 236 196 169 140 132 121 134 121 126 126 128 130 137 140 137 142 140 138 155 142 155 154 179 186 187 186 196 186 190
184 161 176 178 182 219 198 227 249 233 254 277 282 263 282 274 252 259 265 199 179 174 146 122 124 117 107 115 115 111 118 124 121 132 136 127 132 145 154 150 165 179 186 198 195 207 207 202 195
199 168 211 25 282 193 212 280 289 284 286 290 289 303 290 290 296 285 159 158 152 131 119 127 121 106 111 117 114 108 118 124 125 114 113 128 131 136 137 150 150 176 189 196 199 208 220 214 191
178 184 105 332 205 247 255 258 234 319 286 355 324 301 297 281 157 163 156 143 114 113 112 107 106 114 117 114 112 114 113 108 113 120 128 138 128 122 131 134 162 165 175 203 189 218 229 214 196
150 299 199 171 182 208 303 266 220 249 70 333 302 317 297 293 168 158 146 123 112 109 109 108 111 115 113 111 111 113 114 113 115 119 129 138 130 134 140 156 158 167 168 133 189 232 231 190 179
338 257 229 200 254 253 130 277 332 113 65 8 347 328 331 34 151 149 135 124 113 111 114 113 120 122 123 122 118 117 115 116 116 122 135 139 130 135 150 143 155 151 158 27 255 231 189 145 230